DB7GV-8 Weather Reports


time (UTC)temp
C
wind
direction
speed
KPH
gust
KPH
rain 1hr
cm
rain 24hr
cm
rain mn
cm
humidity
%
barometer
mb
20260507171254 16 0 0.0 0.0 0.00 0.00 0.00 55 1015.5
20260507165748 16 0 0.0 0.0 0.00 0.00 0.00 54 1015.5
20260507164243 16 0 0.0 0.0 0.00 0.00 0.00 54 1015.4
20260507162737 16 0 0.0 0.0 0.00 0.00 0.00 53 1015.4
20260507161232 17 0 0.0 0.0 0.00 0.00 0.00 52 1015.4
20260507155727 16 0 0.0 0.0 0.00 0.00 0.00 52 1015.5
20260507154221 16 0 0.0 0.0 0.00 0.00 0.00 51 1015.4
20260507152716 17 0 0.0 0.0 0.00 0.00 0.00 50 1015.4
20260507151211 17 0 0.0 0.0 0.00 0.00 0.00 49 1015.4
20260507145705 17 0 0.0 0.0 0.00 0.00 0.00 50 1015.4
20260507144200 17 0 0.0 0.0 0.00 0.00 0.00 50 1015.4
20260507142655 18 0 0.0 0.0 0.00 0.00 0.00 48 1015.5
20260507141148 18 0 0.0 0.0 0.00 0.00 0.00 50 1015.4
20260507135643 18 0 0.0 0.0 0.00 0.00 0.00 48 1015.4
20260507132633 17 0 0.0 0.0 0.00 0.00 0.00 52 1015.7
20260507131127 17 0 0.0 0.0 0.00 0.00 0.00 52 1015.7
20260507125622 17 0 0.0 0.0 0.00 0.00 0.00 49 1015.7
20260507124117 17 0 0.0 0.0 0.00 0.00 0.00 45 1015.8
20260507122611 17 0 0.0 0.0 0.00 0.00 0.00 46 1015.8
20260507121105 17 0 0.0 0.0 0.00 0.00 0.00 48 1015.7
20260507115600 16 0 0.0 0.0 0.00 0.00 0.00 52 1015.8
20260507114055 16 0 0.0 0.0 0.00 0.00 0.00 53 1015.9
20260507112549 16 0 0.0 0.0 0.00 0.00 0.00 54 1015.7
20260507111044 16 0 0.0 0.0 0.00 0.00 0.00 54 1015.9
20260507105539 16 0 0.0 0.0 0.00 0.00 0.00 56 1015.9
20260507104033 17 0 0.0 0.0 0.00 0.00 0.00 53 1015.8
20260507102528 17 0 0.0 0.0 0.00 0.00 0.00 57 1015.8
20260507101022 17 0 0.0 0.0 0.00 0.00 0.00 63 1015.8
20260507095517 16 0 0.0 0.0 0.00 0.00 0.00 68 1015.9
20260507092506 15 0 0.0 0.0 0.00 0.00 0.00 74 1015.8
20260507091000 15 0 0.0 0.0 0.00 0.00 0.00 76 1015.7
20260507085455 14 0 0.0 0.0 0.00 0.00 0.00 82 1015.6
20260507083950 12 0 0.0 0.0 0.00 0.00 0.00 85 1015.6
20260507082444 12 0 0.0 0.0 0.00 0.00 0.00 88 1015.5
20260507080939 12 0 0.0 0.0 0.00 0.00 0.00 90 1015.5
20260507075434 12 0 0.0 0.0 0.00 0.00 0.00 91 1015.4
20260507073928 11 0 0.0 0.0 0.00 0.00 0.00 92 1015.4
20260507072422 10 0 0.0 0.0 0.00 0.00 0.00 92 1015.4
20260507070917 11 0 0.0 0.0 0.00 0.00 0.00 93 1015.2
20260507065412 11 0 0.0 0.0 0.00 0.00 0.00 94 1015.1
20260507063906 10 0 0.0 0.0 0.00 0.00 0.00 95 1015.0
20260507062401 10 0 0.0 0.0 0.00 0.00 0.00 96 1015.0
20260507060856 10 0 0.0 0.0 0.00 0.00 0.00 96 1014.9
20260507055350 9 0 0.0 0.0 0.00 0.00 0.00 97 1014.8
20260507053845 9 0 0.0 0.0 0.00 0.00 0.00 97 1014.7
20260507052340 8 0 0.0 0.0 0.00 0.00 0.00 97 1014.5
20260507050834 8 0 0.0 0.0 0.00 0.00 0.00 97 1014.3
20260507045328 8 0 0.0 0.0 0.00 0.00 0.00 96 1014.1
20260507043823 8 0 0.0 0.0 0.00 0.00 0.00 96 1014.0
20260507042317 8 0 0.0 0.0 0.00 0.00 0.00 96 1013.9
20260507040812 8 0 0.0 0.0 0.00 0.00 0.00 95 1013.9
20260507035307 8 0 0.0 0.0 0.00 0.00 0.00 94 1013.8
20260507033802 8 0 0.0 0.0 0.00 0.00 0.00 93 1013.8
20260507032256 8 0 0.0 0.0 0.00 0.00 0.00 92 1013.7
20260507030751 7 0 0.0 0.0 0.00 0.00 0.00 91 1013.5
20260507025245 7 0 0.0 0.0 0.00 0.00 0.00 90 1013.5
20260507023740 7 0 0.0 0.0 0.00 0.00 0.00 90 1013.4
20260507022234 7 0 0.0 0.0 0.00 0.00 0.00 90 1013.5
20260507020729 7 0 0.0 0.0 0.00 0.00 0.00 89 1013.4
20260507015223 7 0 0.0 0.0 0.00 0.00 0.00 89 1013.2
20260507013718 7 0 0.0 0.0 0.00 0.00 0.00 89 1013.2
20260507012213 7 0 0.0 0.0 0.00 0.00 0.00 89 1013.1
20260507010707 7 0 0.0 0.0 0.00 0.00 0.00 89 1013.1
20260507005202 6 0 0.0 0.0 0.00 0.00 0.00 88 1013.1
20260507003657 7 0 0.0 0.0 0.00 0.00 0.00 88 1013.0
20260507002151 7 0 0.0 0.0 0.00 0.00 0.00 88 1012.9
20260507000645 7 0 0.0 0.0 0.00 0.00 0.00 88 1012.8
20260506235140 7 0 0.0 0.0 0.00 0.00 0.00 88 1012.8
20260506233635 7 0 0.0 0.0 0.00 0.00 0.00 88 1012.9
20260506232129 7 0 0.0 0.0 0.00 0.00 0.00 88 1012.8
20260506230624 7 0 0.0 0.0 0.00 0.00 0.00 89 1012.6
20260506225119 8 0 0.0 0.0 0.00 0.00 0.00 89 1012.7
20260506223613 8 0 0.0 0.0 0.00 0.00 0.00 89 1012.6
20260506222107 8 0 0.0 0.0 0.00 0.00 0.00 89 1012.6
20260506220602 8 0 0.0 0.0 0.00 0.00 0.00 89 1012.6
20260506215057 9 0 0.0 0.0 0.00 0.00 0.00 88 1012.6
20260506213552 10 0 0.0 0.0 0.00 0.00 0.00 87 1012.5
20260506212046 9 0 0.0 0.0 0.00 0.00 0.00 87 1012.8
20260506210541 9 0 0.0 0.0 0.00 0.00 0.00 87 1012.7
20260506205035 9 0 0.0 0.0 0.00 0.00 0.00 86 1012.5
20260506203530 9 0 0.0 0.0 0.00 0.00 0.00 86 1012.4
20260506202024 9 0 0.0 0.0 0.00 0.00 0.00 86 1012.2
20260506200519 10 0 0.0 0.0 0.00 0.00 0.00 86 1012.1
20260506195014 10 0 0.0 0.0 0.00 0.00 0.00 85 1011.9
20260506193509 10 0 0.0 0.0 0.00 0.00 0.00 84 1011.8
20260506192002 10 0 0.0 0.0 0.00 0.00 0.00 84 1011.8
20260506190458 10 0 0.0 0.0 0.00 0.00 0.00 83 1011.7
20260506184952 10 0 0.0 0.0 0.00 0.00 0.00 82 1011.5
20260506183447 10 0 0.0 0.0 0.00 0.00 0.00 81 1011.2
20260506181942 11 0 0.0 0.0 0.00 0.00 0.00 80 1011.1
20260506180435 11 0 0.0 0.0 0.00 0.00 0.00 79 1011.0
20260506174930 11 0 0.0 0.0 0.00 0.00 0.00 79 1010.9
20260506173425 11 0 0.0 0.0 0.00 0.00 0.00 78 1010.8